Terug naar catalogus

COSMOS 2117

ActiefMilitairPO
NORAD 21031·PAYLOAD·🇷🇺 Russia

Gelanceerd Dec 22, 1990 vanaf Plesetsk Cosmodrome

Loading…

Volgende Passages (komende 24 uur)

TLE

VersSource: Space-Track

Epoch: Sep 14, 2026, 22:45 UTC

1 21031U 90114D   26257.94830959  .00000031  00000-0  11125-3 0  9998
2 21031  82.5763 139.7857 0007154 219.2774 168.0247 12.65033491649628

Volg COSMOS 2117 in realtime met AllMySat

Download on the App Store